Tracking 26544 objects as of 9-Dec-2022
HD Live streaming from Space Station
objects crossing your sky now

STARLINK-4123

Track STARLINK-4123 now!
10-day predictions
STARLINK-4123 is classified as:


NORAD ID: 53539
Int'l Code: 2022-101N
Perigee: 545.6 km
Apogee: 548.2 km
Inclination: 53.2 °
Period: 95.4 minutes
Semi major axis: 6917 km
RCS: Unknown
Launch date: August 19, 2022
Source: United States (US)
Launch site: AIR FORCE EASTERN TEST RANGE (AFETR)
aabbcc
Your satellite tracking list
Your tracking list is empty




NASA's NSSDC Master Catalog

Two Line Element Set (TLE):
1 53539U 22101N   22342.76846777  .00002545  00000-0  17793-3 0  9992
2 53539  53.2202   2.4117 0001898 309.5335  50.5489 15.08841254 16983
Source of the keplerian elements: AFSPC